Flag for U.S.A. Weather past 2 weeks in El Paso, Texas, U.S.A.

Now
42 °F

Passing clouds.


Feels Like: 39 °F
Forecast: 40 / 55 °F
Wind: 5 mph from Southeast

Location: El Paso International Airport

Current Time: Dec 19, 2014 at 9:46:01 AM

Latest Report: Dec 19, 2014 at 8:51 AM


Visibility: 10 mi

Pressure: 30.14 "Hg

Humidity: 85%

Dew point: 38 °F

Location of El PasoLocation

Historic Weather in El Paso — Graph

°F

El Paso temperature yesterday

Maximum temperature yesterday: 55 °F (at 1:51 PM)
Minimum temperature yesterday: 37 °F (at 5:51 AM)
Average temperature yesterday: 46 °F

Past Weeks' High & Low Weather Summary

 TemperatureHumidityPressure
High71 °F (Dec 12, 2:51 PM)93% (Dec 19, 7:51 AM)30.28 "Hg (Dec 19, 7:51 AM)
Low34 °F (Dec 15, 6:51 AM)18% (Dec 14, 8:51 PM)29.74 "Hg (Dec 13, 4:51 PM)
Average53 °F52%30.04 "Hg
* Reported Dec 4 7:51 AM — Dec 19 7:51 AM, El Paso, Weather by CustomWeather, © 2014

Note: Actual official high and low records may vary slightly from our data, if they occured in-between our weather recording intervals... More about our weather records

Advertising

El Paso weather history for previous 24 hours

 ConditionsComfort  
Time TempWeatherWind HumidityBarometerVisibility
7:51 AM
Dec 19
38 °FPassing clouds.5 mph93%30.14 "Hg10 mi
6:51 AM35 °FPassing clouds.No wind92%30.13 "Hg8 mi
5:51 AM36 °FClear.5 mph92%30.10 "Hg10 mi
4:51 AM38 °FPassing clouds.7 mph90%30.06 "Hg10 mi
3:51 AM44 °FPassing clouds.7 mph73%30.06 "Hg10 mi
2:51 AM41 °FPassing clouds.6 mph80%30.05 "Hg10 mi
1:51 AM45 °FPassing clouds.10 mph74%30.04 "Hg10 mi
12:51 AM43 °FPartly cloudy.No wind86%30.05 "Hg10 mi
11:51 PM
Dec 18
46 °FPassing clouds.6 mph71%30.06 "Hg10 mi
10:51 PM47 °FPassing clouds.12 mph69%30.06 "Hg10 mi
9:51 PM47 °FPassing clouds.8 mph71%30.06 "Hg10 mi
8:51 PM47 °FPassing clouds.14 mph77%30.06 "Hg10 mi
7:51 PM48 °FLight rain. Passing clouds.7 mph74%30.08 "Hg10 mi
6:51 PM48 °FOvercast.5 mph74%30.05 "Hg10 mi
6:01 PM49 °FLight rain. Mostly cloudy.22 mph69%30.08 "Hg10 mi
4:51 PM54 °FMostly cloudy.9 mph49%29.97 "Hg10 mi
3:51 PM54 °FMore clouds than sun.7 mph51%29.96 "Hg10 mi
2:51 PM54 °FOvercast.3 mph49%29.97 "Hg10 mi
1:51 PM55 °FOvercast.10 mph49%29.98 "Hg10 mi
12:51 PM53 °FOvercast.6 mph52%30.01 "Hg10 mi
11:51 AM51 °FPartly sunny.6 mph56%30.04 "Hg10 mi
10:51 AM49 °FBroken clouds.5 mph59%30.08 "Hg10 mi
9:51 AM46 °FBroken clouds.5 mph66%30.09 "Hg10 mi
Weather by CustomWeather, © 2014

See weather overviewHow to use our weather pages